• Join FlightAware (Why Join?)
  • Login
  • US Flag 
 
05:02AM EST


 

Airport Tracker/Info


-or-


 

Live Flight TrackerFlight Track Log ✈ N789EX ✈ 16-Apr-2014 ✈ KBFI - KMWH

Flight Track Log - Related Links

Times and Time Zones

All times are in EDT time to prevent confusion due to time zone crossing. See the N789EX flight status page for this flight to view local times or setup timezone preferences in your user account.

Time Position Orientation Groundspeed Altitude Reporting Facility
EDT Latitude Longitude Course Direction KTS MPH feet Rate Location/Type
11:55AM 47.4875 -122.2600 141° Southeast 215 247 1,900  Level FlightAware ADS-B
11:55AM 47.4753 -122.2460 142° Southeast 236 272 2,200 1,680 Climbing FlightAware ADS-B
11:55AM 47.4667 -122.2360 141° Southeast 246 283 2,600 2,280 Climbing FlightAware ADS-B
11:55AM 47.4640 -122.2320 139° Southeast 249 287 2,700 1,980 Climbing FlightAware ADS-B
11:55AM 47.4615 -122.2290 136° Southeast 251 289 2,800 2,520 Climbing FlightAware ADS-B
11:55AM 47.4582 -122.2230 130° Southeast 256 295 3,000 3,420 Climbing FlightAware ADS-B
11:55AM 47.4558 -122.2190 127° Southeast 259 298 3,200 3,000 Climbing FlightAware ADS-B
11:55AM 47.4528 -122.2120 123° Southeast 262 302 3,400 2,640 Climbing FlightAware ADS-B
11:55AM 47.4504 -122.2060 119° Southeast 264 304 3,600 3,420 Climbing FlightAware ADS-B
11:55AM 47.4488 -122.2010 114° Southeast 266 306 3,800 3,000 Climbing FlightAware ADS-B
11:55AM 47.4474 -122.1950 110° East 268 308 3,900 2,520 Climbing FlightAware ADS-B
11:55AM 47.4462 -122.1890 103° East 271 312 4,100 3,000 Climbing FlightAware ADS-B
11:56AM 47.4456 -122.1810 97° East 274 315 4,300 3,000 Climbing FlightAware ADS-B
11:56AM 47.4443 -122.1520 93° East 279 321 5,100 3,060 Climbing FlightAware ADS-B
11:56AM 47.4432 -122.1220 93° East 285 328 5,900 2,880 Climbing FlightAware ADS-B
11:56AM 47.4422 -122.0900 93° East 290 334 6,600 2,700 Climbing FlightAware ADS-B
11:57AM 47.4412 -122.0600 93° East 295 339 7,300 2,880 Climbing FlightAware ADS-B
11:57AM 47.4402 -122.0290 93° East 298 343 8,100 3,000 Climbing FlightAware ADS-B
11:57AM 47.4392 -121.9960 92° East 299 344 8,900 2,880 Climbing FlightAware ADS-B
11:57AM 47.4383 -121.9650 93° East 303 349 9,600 2,700 Climbing FlightAware ADS-B
11:57AM 47.4376 -121.9457 93° East 307 353 10,000 1,800 Climbing FlightAware ADS-B (CYVR)
11:58AM 47.4359 -121.9000 93° East 328 377 10,500 1,320 Climbing FlightAware ADS-B
11:58AM 47.4352 -121.8779 93° East 343 395 10,700 1,140 Climbing FlightAware ADS-B (CYVR)
11:58AM 47.4336 -121.8280 93° East 362 417 11,100 1,140 Climbing FlightAware ADS-B
11:59AM 47.4310 -121.7510 93° East 393 452 11,700 1,620 Climbing FlightAware ADS-B
11:59AM 47.4282 -121.6700 92° East 409 471 12,700 2,160 Climbing FlightAware ADS-B
12:00PM 47.4274 -121.5840 91° East 419 482 13,900 2,340 Climbing FlightAware ADS-B
12:00PM 47.4270 -121.5394 91° East 425 489 14,500 1,800 Climbing FlightAware ADS-B (CYVR)
12:00PM 47.4265 -121.4960 91° East 433 498 14,800 480 Climbing FlightAware ADS-B
12:01PM 47.4252 -121.4040 91° East 441 507 14,900 60 Climbing FlightAware ADS-B
12:01PM 47.4238 -121.3130 91° East 448 516 14,900  Level FlightAware ADS-B
12:02PM 47.4220 -121.2200 92° East 449 517 14,900  Level FlightAware ADS-B
12:02PM 47.4202 -121.1280 92° East 445 512 14,900  Level FlightAware ADS-B
12:03PM 47.4185 -121.0360 92° East 442 509 14,900  Level FlightAware ADS-B
12:03PM 47.4166 -120.9460 91° East 443 510 14,900  Level FlightAware ADS-B
12:04PM 47.4148 -120.8550 92° East 446 513 14,900  Level FlightAware ADS-B
12:04PM 47.4128 -120.7610 92° East 449 517 14,900  Level FlightAware ADS-B
12:05PM 47.4084 -120.5700 92° East 438 504 14,900  Level FlightAware ADS-B
12:06PM 47.4064 -120.4800 92° East 439 505 14,900 -120 Level FlightAware ADS-B
12:07PM 47.4030 -120.3380 92° East 422 486 14,800 -960 Descending FlightAware ADS-B
12:08PM 47.3972 -120.1556 92° East 419 482 13,100 -1,620 Descending Seattle Center
12:09PM 47.3944 -119.9911 91° East 407 468 11,400 -1,320 Descending Seattle Center
12:10PM 47.3494 -119.8603 117° Southeast 361 415 10,500 -1,200 Descending Seattle Center
12:11PM 47.3033 -119.7439 120° Southeast 302 348 9,000 -1,860 Descending Seattle Center
12:12PM 47.2647 -119.6414 119° Southeast 292 336 6,800 -1,980 Descending Seattle Center
12:13PM 47.2317 -119.5506 118° Southeast 256 295 5,000 -1,380 Descending Seattle Center
12:14PM 47.1886 -119.4764 130° Southeast 244 281 4,000 -600 Descending Seattle Center
12:15PM 47.1392 -119.4083 137° Southeast 232 267 3,900 -540 Descending Seattle Center
12:16PM 47.1125 -119.3422 121° Southeast 201 231 3,000 -840 Descending Seattle Center
12:17PM 47.1447 -119.2903 48° Northeast 187 215 2,200 -900 Descending Seattle Center
12:18PM 47.1914 -119.3106 344° North 178 205 1,200 -540 Descending Seattle Center
12:19PM 47.2286 -119.3239 346° North 168 193 1,200  Level Seattle Center
12:21PM 47.2086 -119.3191 180° South  Level Estimated
12:28PM 47.2086 -119.3191 180° South  Level Estimated
12:29PM 47.2086 -119.3191 180° South  Level Estimated
12:30PM 47.2086 -119.3191 180° South  Level Estimated
12:31PM 47.2086 -119.3191 180° South  Level Estimated
12:32PM 47.2086 -119.3191 180° South  Level Estimated